sat.trackr.live / text

‹ back to catalog

PULSAR-0

NORAD 64541 · 2025-135P

PAYLOAD ACTIVE UNKNOWN

§ Identity

Operator
Country
US
Launch date
2025-06-23
Launch site
AFWTR
Launch vehicle
Mass (kg)
RCS (m²)

External: N2YO · Heavens-Above · Gunter

§ Orbital elements

Epoch: 2026-05-25T04:21:42.354144Z

Period
94.73 min
Inclination
97.4671°
Eccentricity
0.0001527
Mean motion
15.20103449 rev/d
Perigee alt
504.5 km
Apogee alt
506.6 km
Semi-major
6,883.7 km
B*
1.3527e-4
RAAN
260.0560°
Arg perigee
254.3641°
Mean anomaly
105.7426°
Rev number
5,133

§ Raw data

PULSAR-01 64541U 25135P   26145.18174021  .00002853  00000+0  13527-3 0  99962 64541  97.4671 260.0560 0001527 254.3641 105.7426 15.20103449 51331

JSON: /api/v1/satellites/64541 · /tle

For live sub-satellite position, see the globe view (requires WebGL).

§ Visibility from observer

Set your observer location to see the next 7 days of passes ≥ 10°. The values pass through the URL so the page stays shareable.

No JS? Fill the form by hand. The geolocation button needs JavaScript.